Weather History for Girona, Spain

Change the Weather History Date:

Wednesday, August 13, 2003

  Actual Average Record
Temperature  
Mean Temperature 87 °F -  
Max Temperature 105 °F 82 °F 105 °F (2003)
Min Temperature 69 °F 60 °F 57 °F (2006)
Cooling Degree Days 22    
Growing Degree Days 37 (Base 50)    
Moisture  
Dew Point 47 °F    
Average Humidity 28    
Maximum Humidity 53    
Minimum Humidity 11    
Precipitation  
Precipitation 0.00 in 0.07 in - ()
Sea Level Pressure  
Sea Level Pressure 30.14 in    
Wind  
Wind Speed 3 mph ()    
Max Wind Speed 16 mph    
Max Gust Speed -    
Visibility 6.2 miles    
Events      
Averages and records for this station are not official NWS values.
T = Trace of Precipitation, MM = Missing Value Source: Averaged Metar Reports

Daily Weather History Graph

Daily Weather History Graph

Search for Another Location

Airport:

Trip Planner

Search our weather history database for the weather conditions in past years. The results will help you decide how hot, cold, wet, or windy it might be!

Date:

Astronomy

Aug. 13, 2003 Rise Set
Actual Time 6:54 AM CEST 8:52 PM CEST
Civil Twilight 6:23 AM CEST 9:22 PM CEST
Nautical Twilight 5:46 AM CEST 9:59 PM CEST
Astronomical Twilight 5:06 AM CEST 10:39 PM CEST
Moon 10:03 PM CEST (8/13) 7:55 AM CEST (8/13)
Length of Visible Light 14h 58m
Length of Day
13h 58m
Full, 98% of the Moon is Illuminated
Aug 13
Full
Aug 20
Last Quarter
Aug 27
New
Sep 3
First Quarter
Sep 10
Full

Hourly Weather History & Observations

Time (CEST) Temp. Heat Index Dew Point Humidity Pressure Visibility Wind Dir Wind Speed Gust Speed Precip Events Conditions
12:00 AM 80.6 °F - 46.4 °F 30% 30.15 in 6.2 mi Calm Calm - N/A   Partly Cloudy
12:30 AM 80.6 °F - 48.2 °F 32% 30.15 in 6.2 mi Variable 2.3 mph - N/A   Partly Cloudy
1:00 AM 78.8 °F - 48.2 °F 34% 30.15 in 6.2 mi Calm Calm - N/A   Partly Cloudy
1:30 AM 78.8 °F - 48.2 °F 34% 30.15 in 6.2 mi Calm Calm - N/A   Partly Cloudy
2:30 AM 77.0 °F - 48.2 °F 36% 30.15 in 6.2 mi Calm Calm - N/A   Partly Cloudy
3:00 AM 75.2 °F - 50.0 °F 41% 30.15 in 6.2 mi Calm Calm - N/A   Partly Cloudy
4:00 AM 73.4 °F - 50.0 °F 44% 30.15 in 6.2 mi Calm Calm - N/A   Partly Cloudy
4:30 AM 73.4 °F - 50.0 °F 44% 30.15 in 6.2 mi Calm Calm - N/A   Partly Cloudy
5:30 AM 73.4 °F - 50.0 °F 44% 30.15 in 6.2 mi Calm Calm - N/A   Partly Cloudy
6:00 AM 71.6 °F - 51.8 °F 50% 30.15 in 6.2 mi Calm Calm - N/A   Partly Cloudy
6:30 AM 71.6 °F - 51.8 °F 50% 30.15 in 6.2 mi Calm Calm - N/A   Partly Cloudy
7:00 AM 69.8 °F - 51.8 °F 53% 30.15 in 6.2 mi Calm Calm - N/A   Partly Cloudy
7:30 AM 71.6 °F - 53.6 °F 53% 30.15 in 6.2 mi Calm Calm - N/A   Partly Cloudy
8:30 AM 77.0 °F - 53.6 °F 44% 30.18 in - Calm Calm - N/A   Clear
9:00 AM 78.8 °F - 51.8 °F 39% 30.18 in - Variable 1.2 mph - N/A   Clear
9:30 AM 82.4 °F 81.4 °F 53.6 °F 37% 30.18 in - Variable 1.2 mph - N/A   Clear
10:00 AM 86.0 °F - 51.8 °F 31% 30.18 in - Variable 2.3 mph - N/A   Clear
10:30 AM 87.8 °F - 51.8 °F 29% 30.18 in - Variable 1.2 mph - N/A   Clear
11:00 AM 91.4 °F - 50.0 °F 24% 30.18 in - Variable 1.2 mph - N/A   Clear
11:30 AM 96.8 °F - 48.2 °F 19% 30.18 in - Variable 3.5 mph - N/A   Clear
12:00 PM 100.4 °F - 44.6 °F 15% 30.15 in - South 6.9 mph - N/A   Clear
12:30 PM 102.2 °F - 41.0 °F 12% 30.15 in 6.2 mi South 9.2 mph - N/A   Partly Cloudy
1:00 PM 104.0 °F - 41.0 °F 12% 30.15 in 6.2 mi South 8.1 mph - N/A   Partly Cloudy
1:30 PM 104.0 °F - 44.6 °F 13% 30.15 in 6.2 mi Variable 9.2 mph - N/A   Partly Cloudy
2:00 PM 105.8 °F - 44.6 °F 13% 30.12 in 6.2 mi South 12.7 mph - N/A   Partly Cloudy
2:30 PM 105.8 °F - 44.6 °F 13% 30.12 in 6.2 mi South 12.7 mph - N/A   Partly Cloudy
3:00 PM 105.8 °F - 44.6 °F 13% 30.12 in 6.2 mi South 13.8 mph - N/A   Partly Cloudy
3:30 PM 105.8 °F - 41.0 °F 11% 30.12 in 6.2 mi South 16.1 mph - N/A   Partly Cloudy
4:00 PM 105.8 °F - 41.0 °F 11% 30.12 in 6.2 mi South 15.0 mph - N/A   Partly Cloudy
4:30 PM 102.2 °F - 37.4 °F 11% 30.12 in 6.2 mi South 15.0 mph - N/A   Partly Cloudy
5:00 PM 102.2 °F - 41.0 °F 12% 30.12 in 6.2 mi South 13.8 mph - N/A   Partly Cloudy
5:30 PM 100.4 °F - 41.0 °F 13% 30.12 in 6.2 mi South 15.0 mph - N/A   Partly Cloudy
6:00 PM 100.4 °F - 41.0 °F 13% 30.12 in 6.2 mi South 13.8 mph - N/A   Partly Cloudy
6:30 PM 98.6 °F - 46.4 °F 17% 30.09 in 6.2 mi South 13.8 mph - N/A   Partly Cloudy
7:00 PM 95.0 °F - 51.8 °F 23% 30.09 in 6.2 mi South 11.5 mph - N/A   Partly Cloudy
8:30 PM 91.4 °F - 48.2 °F 23% 30.09 in 6.2 mi SSW 4.6 mph - N/A   Partly Cloudy
9:00 PM 89.6 °F - 48.2 °F 24% 30.09 in 6.2 mi South 5.8 mph - N/A   Partly Cloudy
9:30 PM 87.8 °F - 46.4 °F 24% 30.09 in 6.2 mi Variable 3.5 mph - N/A   Partly Cloudy
10:00 PM 87.8 °F - 48.2 °F 25% 30.12 in 6.2 mi Variable 2.3 mph - N/A   Partly Cloudy
10:30 PM 86.0 °F - 48.2 °F 27% 30.12 in 6.2 mi Variable 2.3 mph - N/A   Partly Cloudy
11:00 PM 84.2 °F - 48.2 °F 29% 30.12 in 6.2 mi SSW 2.3 mph - N/A   Partly Cloudy
11:30 PM 80.6 °F - 50.0 °F 34% 30.12 in 6.2 mi Variable 1.2 mph - N/A   Partly Cloudy